Time,TemperatureF,DewpointF,PressureIn,WindDirection,WindDirectionDegrees,WindSpeedMPH,WindSpeedGustMPH,Humidity,HourlyPrecipIn,Conditions,Clouds,dailyrainin,SoftwareType,DateUTC
2013-02-06 00:06:00,31.8,27.0,30.12,NW,325,0.0,-999.0,83,-99.99,,,0.00,weatherlink.com 1.10,2013-02-06 06:06:00,
2013-02-06 00:21:00,31.7,27.0,30.12,North,351,0.0,-999.0,84,-99.99,,,0.00,weatherlink.com 1.10,2013-02-06 06:21:00,
2013-02-06 00:36:00,31.6,27.0,30.12,NNW,327,0.0,-999.0,84,-99.99,,,0.00,weatherlink.com 1.10,2013-02-06 06:36:00,
2013-02-06 00:51:00,31.4,27.0,30.13,NNW,328,0.0,-999.0,84,-99.99,,,0.00,weatherlink.com 1.10,2013-02-06 06:51:00,
2013-02-06 01:06:00,31.3,27.0,30.13,North,351,0.0,-999.0,84,-99.99,,,0.00,weatherlink.com 1.10,2013-02-06 07:06:00,
2013-02-06 01:21:00,31.2,27.0,30.13,North,355,0.0,-999.0,83,-99.99,,,0.00,weatherlink.com 1.10,2013-02-06 07:21:00,
2013-02-06 01:36:00,31.2,27.0,30.13,North,5,0.0,-999.0,83,-99.99,,,0.00,weatherlink.com 1.10,2013-02-06 07:36:00,
2013-02-06 01:51:00,31.0,27.0,30.13,North,5,0.0,-999.0,84,-99.99,,,0.00,weatherlink.com 1.10,2013-02-06 07:51:00,
2013-02-06 02:06:00,30.7,26.0,30.14,North,5,0.0,-999.0,83,-99.99,,,0.00,weatherlink.com 1.10,2013-02-06 08:06:00,
2013-02-06 02:21:00,30.3,26.0,30.14,North,5,0.0,-999.0,83,-99.99,,,0.00,weatherlink.com 1.10,2013-02-06 08:21:00,
2013-02-06 02:36:00,30.0,25.0,30.15,North,360,0.0,-999.0,83,-99.99,,,0.00,weatherlink.com 1.10,2013-02-06 08:36:00,
2013-02-06 02:51:00,29.8,25.0,30.15,North,360,0.0,-999.0,83,-99.99,,,0.00,weatherlink.com 1.10,2013-02-06 08:51:00,
2013-02-06 03:06:00,29.5,25.0,30.16,North,360,0.0,-999.0,84,-99.99,,,0.00,weatherlink.com 1.10,2013-02-06 09:06:00,
2013-02-06 03:21:00,29.4,25.0,30.16,North,360,0.0,-999.0,84,-99.99,,,0.00,weatherlink.com 1.10,2013-02-06 09:21:00,
2013-02-06 03:36:00,29.6,25.0,30.17,North,360,0.0,-999.0,82,-99.99,,,0.00,weatherlink.com 1.10,2013-02-06 09:36:00,
2013-02-06 03:51:00,29.5,25.0,30.17,North,360,0.0,-999.0,83,-99.99,,,0.00,weatherlink.com 1.10,2013-02-06 09:51:00,
2013-02-06 04:06:00,29.2,25.0,30.17,North,360,0.0,-999.0,83,-99.99,,,0.00,weatherlink.com 1.10,2013-02-06 10:06:00,
2013-02-06 04:21:00,28.8,24.0,30.18,North,360,0.0,-999.0,81,-99.99,,,0.00,weatherlink.com 1.10,2013-02-06 10:21:00,
2013-02-06 04:36:00,28.4,24.0,30.18,North,360,0.0,-999.0,82,-99.99,,,0.00,weatherlink.com 1.10,2013-02-06 10:36:00,
2013-02-06 04:51:00,27.7,23.0,30.18,North,360,0.0,-999.0,82,-99.99,,,0.00,weatherlink.com 1.10,2013-02-06 10:51:00,
2013-02-06 05:21:00,25.9,21.0,30.19,North,360,0.0,-999.0,82,-99.99,,,0.00,weatherlink.com 1.10,2013-02-06 11:21:00,
2013-02-06 05:36:00,25.1,21.0,30.19,North,360,0.0,-999.0,84,-99.99,,,0.00,weatherlink.com 1.10,2013-02-06 11:36:00,
2013-02-06 05:51:00,24.7,21.0,30.19,North,360,0.0,-999.0,85,-99.99,,,0.00,weatherlink.com 1.10,2013-02-06 11:51:00,
2013-02-06 06:06:00,24.3,20.0,30.20,North,360,0.0,-999.0,85,-99.99,,,0.00,weatherlink.com 1.10,2013-02-06 12:06:00,
2013-02-06 06:21:00,23.8,20.0,30.20,North,360,0.0,-999.0,86,-99.99,,,0.00,weatherlink.com 1.10,2013-02-06 12:21:00,
2013-02-06 06:36:00,23.4,20.0,30.21,NNE,30,0.0,-999.0,87,-99.99,,,0.00,weatherlink.com 1.10,2013-02-06 12:36:00,
2013-02-06 06:51:00,23.3,20.0,30.21,ENE,64,0.0,-999.0,87,-99.99,,,0.00,weatherlink.com 1.10,2013-02-06 12:51:00,
2013-02-06 07:06:00,23.0,20.0,30.21,ENE,64,0.0,-999.0,87,-99.99,,,0.00,weatherlink.com 1.10,2013-02-06 13:06:00,
2013-02-06 07:21:00,22.2,19.0,30.21,ENE,64,0.0,-999.0,86,-99.99,,,0.00,weatherlink.com 1.10,2013-02-06 13:21:00,
2013-02-06 07:36:00,22.1,19.0,30.21,ENE,65,0.0,-999.0,88,-99.99,,,0.00,weatherlink.com 1.10,2013-02-06 13:36:00,
2013-02-06 07:51:00,23.5,21.0,30.22,ENE,65,0.0,-999.0,90,-99.99,,,0.00,weatherlink.com 1.10,2013-02-06 13:51:00,
2013-02-06 08:06:00,25.1,22.0,30.22,ENE,65,0.0,-999.0,89,-99.99,,,0.00,weatherlink.com 1.10,2013-02-06 14:06:00,
2013-02-06 08:21:00,26.8,24.0,30.23,ENE,66,0.0,-999.0,88,-99.99,,,0.00,weatherlink.com 1.10,2013-02-06 14:21:00,
2013-02-06 08:36:00,28.7,25.0,30.23,SE,137,0.0,-999.0,84,-99.99,,,0.00,weatherlink.com 1.10,2013-02-06 14:36:00,
2013-02-06 08:51:00,30.0,25.0,30.23,ESE,119,0.0,-999.0,83,-99.99,,,0.00,weatherlink.com 1.10,2013-02-06 14:51:00,
2013-02-06 09:06:00,31.1,26.0,30.23,SE,132,0.0,-999.0,81,-99.99,,,0.00,weatherlink.com 1.10,2013-02-06 15:06:00,
2013-02-06 09:21:00,32.0,27.0,30.23,SE,146,0.0,-999.0,80,-99.99,,,0.00,weatherlink.com 1.10,2013-02-06 15:21:00,
2013-02-06 09:36:00,32.7,26.0,30.24,SSE,148,0.0,-999.0,77,-99.99,,,0.00,weatherlink.com 1.10,2013-02-06 15:36:00,
2013-02-06 09:51:00,33.3,27.0,30.24,SSE,168,0.0,-999.0,77,-99.99,,,0.00,weatherlink.com 1.10,2013-02-06 15:51:00,
2013-02-06 10:06:00,34.0,27.0,30.24,SSE,159,0.0,-999.0,76,-99.99,,,0.00,weatherlink.com 1.10,2013-02-06 16:06:00,
2013-02-06 10:21:00,34.8,28.0,30.24,SSW,194,0.0,-999.0,75,-99.99,,,0.00,weatherlink.com 1.10,2013-02-06 16:21:00,
2013-02-06 10:36:00,35.6,28.0,30.24,SSW,199,0.0,-999.0,74,-99.99,,,0.00,weatherlink.com 1.10,2013-02-06 16:36:00,
2013-02-06 10:51:00,35.7,28.0,30.22,South,180,0.0,-999.0,73,-99.99,,,0.00,weatherlink.com 1.10,2013-02-06 16:51:00,
2013-02-06 11:06:00,36.2,29.0,30.23,South,186,0.0,-999.0,74,-99.99,,,0.00,weatherlink.com 1.10,2013-02-06 17:06:00,
2013-02-06 11:21:00,36.9,29.0,30.24,SW,223,0.0,-999.0,73,-99.99,,,0.00,weatherlink.com 1.10,2013-02-06 17:21:00,
2013-02-06 11:36:00,37.1,29.0,30.23,SSW,211,0.0,-999.0,72,-99.99,,,0.00,weatherlink.com 1.10,2013-02-06 17:36:00,
2013-02-06 11:51:00,37.6,30.0,30.22,SSW,208,0.0,-999.0,73,-99.99,,,0.00,weatherlink.com 1.10,2013-02-06 17:51:00,
2013-02-06 12:06:00,38.2,30.0,30.23,SW,221,0.0,-999.0,73,-99.99,,,0.00,weatherlink.com 1.10,2013-02-06 18:06:00,
2013-02-06 12:21:00,38.0,31.0,30.22,SW,226,0.0,-999.0,75,-99.99,,,0.00,weatherlink.com 1.10,2013-02-06 18:21:00,
2013-02-06 12:36:00,38.5,31.0,30.21,SSW,205,0.0,-999.0,74,-99.99,,,0.00,weatherlink.com 1.10,2013-02-06 18:36:00,
2013-02-06 12:51:00,38.9,31.0,30.21,SSW,198,0.0,-999.0,73,-99.99,,,0.00,weatherlink.com 1.10,2013-02-06 18:51:00,
2013-02-06 13:06:00,39.3,32.0,30.20,South,169,0.0,-999.0,74,-99.99,,,0.00,weatherlink.com 1.10,2013-02-06 19:06:00,
2013-02-06 13:21:00,39.4,32.0,30.20,SW,215,0.0,-999.0,74,-99.99,,,0.00,weatherlink.com 1.10,2013-02-06 19:21:00,
2013-02-06 13:36:00,40.3,32.0,30.19,SW,221,0.0,-999.0,72,-99.99,,,0.00,weatherlink.com 1.10,2013-02-06 19:36:00,
2013-02-06 13:51:00,40.4,33.0,30.19,SSE,159,0.0,-999.0,74,-99.99,,,0.00,weatherlink.com 1.10,2013-02-06 19:51:00,
2013-02-06 14:06:00,40.3,33.0,30.19,SSW,196,0.0,-999.0,74,-99.99,,,0.00,weatherlink.com 1.10,2013-02-06 20:06:00,
2013-02-06 14:21:00,40.0,32.0,30.18,SSE,167,0.0,-999.0,74,-99.99,,,0.00,weatherlink.com 1.10,2013-02-06 20:21:00,
2013-02-06 14:36:00,40.0,32.0,30.17,SE,131,0.0,-999.0,74,-99.99,,,0.00,weatherlink.com 1.10,2013-02-06 20:36:00,
2013-02-06 14:51:00,40.2,33.0,30.18,South,175,0.0,-999.0,75,-99.99,,,0.00,weatherlink.com 1.10,2013-02-06 20:51:00,
2013-02-06 15:06:00,40.7,33.0,30.18,SSW,198,0.0,-999.0,75,-99.99,,,0.00,weatherlink.com 1.10,2013-02-06 21:06:00,
2013-02-06 15:21:00,40.4,33.0,30.18,South,180,0.0,-999.0,75,-99.99,,,0.00,weatherlink.com 1.10,2013-02-06 21:21:00,
2013-02-06 15:36:00,40.3,33.0,30.18,South,190,0.0,-999.0,76,-99.99,,,0.00,weatherlink.com 1.10,2013-02-06 21:36:00,
2013-02-06 15:51:00,40.5,33.0,30.18,South,184,0.0,-999.0,75,-99.99,,,0.00,weatherlink.com 1.10,2013-02-06 21:51:00,
2013-02-06 16:06:00,40.2,34.0,30.16,South,185,0.0,-999.0,77,-99.99,,,0.00,weatherlink.com 1.10,2013-02-06 22:06:00,
2013-02-06 16:21:00,39.5,33.0,30.16,South,175,0.0,-999.0,78,-99.99,,,0.00,weatherlink.com 1.10,2013-02-06 22:21:00,
2013-02-06 16:36:00,39.1,33.0,30.16,SSE,154,0.0,-999.0,79,-99.99,,,0.00,weatherlink.com 1.10,2013-02-06 22:36:00,
2013-02-06 16:51:00,38.3,33.0,30.16,SSE,155,0.0,-999.0,81,-99.99,,,0.00,weatherlink.com 1.10,2013-02-06 22:51:00,
2013-02-06 17:06:00,37.5,33.0,30.15,SSE,157,0.0,-999.0,83,-99.99,,,0.00,weatherlink.com 1.10,2013-02-06 23:06:00,
2013-02-06 17:21:00,37.5,33.0,30.15,SSE,160,0.0,-999.0,82,-99.99,,,0.00,weatherlink.com 1.10,2013-02-06 23:21:00,
2013-02-06 17:36:00,36.5,34.0,30.15,SSE,151,0.0,-999.0,89,-99.99,,,0.00,weatherlink.com 1.10,2013-02-06 23:36:00,
2013-02-06 17:51:00,36.1,32.0,30.15,SE,146,0.0,-999.0,85,-99.99,,,0.00,weatherlink.com 1.10,2013-02-06 23:51:00,
2013-02-06 18:06:00,36.1,32.0,30.14,SE,138,0.0,-999.0,86,-99.99,,,0.00,weatherlink.com 1.10,2013-02-07 00:06:00,
2013-02-06 18:21:00,36.0,32.0,30.14,SSE,149,0.0,-999.0,86,-99.99,,,0.00,weatherlink.com 1.10,2013-02-07 00:21:00,
2013-02-06 18:36:00,35.8,32.0,30.13,SSE,153,0.0,-999.0,86,-99.99,,,0.00,weatherlink.com 1.10,2013-02-07 00:36:00,
2013-02-06 18:51:00,35.8,32.0,30.14,SE,140,0.0,-999.0,86,-99.99,,,0.00,weatherlink.com 1.10,2013-02-07 00:51:00,
2013-02-06 19:06:00,36.0,32.0,30.14,SSE,159,0.0,-999.0,85,-99.99,,,0.00,weatherlink.com 1.10,2013-02-07 01:06:00,
2013-02-06 19:21:00,35.9,32.0,30.14,SSE,166,0.0,-999.0,85,-99.99,,,0.00,weatherlink.com 1.10,2013-02-07 01:21:00,
2013-02-06 19:36:00,35.8,32.0,30.15,South,169,0.0,-999.0,86,-99.99,,,0.00,weatherlink.com 1.10,2013-02-07 01:36:00,
2013-02-06 19:51:00,35.8,32.0,30.14,SSE,156,0.0,-999.0,85,-99.99,,,0.00,weatherlink.com 1.10,2013-02-07 01:51:00,
2013-02-06 20:06:00,35.6,32.0,30.14,SSE,163,0.0,-999.0,86,-99.99,,,0.00,weatherlink.com 1.10,2013-02-07 02:06:00,
2013-02-06 20:21:00,35.3,32.0,30.13,South,184,0.0,-999.0,86,-99.99,,,0.00,weatherlink.com 1.10,2013-02-07 02:21:00,
2013-02-06 20:36:00,35.4,32.0,30.13,SSE,168,0.0,-999.0,86,-99.99,,,0.00,weatherlink.com 1.10,2013-02-07 02:36:00,
2013-02-06 20:51:00,35.2,32.0,30.13,South,173,0.0,-999.0,87,-99.99,,,0.00,weatherlink.com 1.10,2013-02-07 02:51:00,
2013-02-06 21:06:00,35.2,32.0,30.13,South,171,0.0,-999.0,87,-99.99,,,0.00,weatherlink.com 1.10,2013-02-07 03:06:00,
2013-02-06 21:21:00,35.3,32.0,30.14,South,175,0.0,-999.0,87,-99.99,,,0.00,weatherlink.com 1.10,2013-02-07 03:21:00,
2013-02-06 21:36:00,35.2,32.0,30.14,South,179,0.0,-999.0,87,-99.99,,,0.00,weatherlink.com 1.10,2013-02-07 03:36:00,
2013-02-06 21:51:00,35.0,32.0,30.13,SSE,161,0.0,-999.0,87,-99.99,,,0.00,weatherlink.com 1.10,2013-02-07 03:51:00,
2013-02-06 22:06:00,34.7,32.0,30.13,SSE,152,0.0,-999.0,88,-99.99,,,0.00,weatherlink.com 1.10,2013-02-07 04:06:00,
2013-02-06 22:21:00,34.3,31.0,30.12,SSE,157,0.0,-999.0,89,-99.99,,,0.00,weatherlink.com 1.10,2013-02-07 04:21:00,
2013-02-06 22:36:00,34.2,31.0,30.12,SE,146,0.0,-999.0,89,-99.99,,,0.00,weatherlink.com 1.10,2013-02-07 04:36:00,
2013-02-06 22:51:00,34.2,31.0,30.13,SSE,155,0.0,-999.0,89,-99.99,,,0.00,weatherlink.com 1.10,2013-02-07 04:51:00,
2013-02-06 23:06:00,33.9,31.0,30.12,SSE,149,0.0,-999.0,89,-99.99,,,0.00,weatherlink.com 1.10,2013-02-07 05:06:00,
2013-02-06 23:21:00,33.6,31.0,30.13,SSE,147,0.0,-999.0,90,-99.99,,,0.00,weatherlink.com 1.10,2013-02-07 05:21:00,
2013-02-06 23:36:00,33.4,31.0,30.13,SE,146,0.0,-999.0,90,-99.99,,,0.00,weatherlink.com 1.10,2013-02-07 05:36:00,
2013-02-06 23:51:00,33.3,31.0,30.12,SSE,147,0.0,-999.0,91,-99.99,,,0.00,weatherlink.com 1.10,2013-02-07 05:51:00,